Wind_Speed
70 63 58 59 60 68 64 63 59 57 54 54 53 50 47 46 47 47 47 45 47 43 38 35 37 36 36 37 39 41 39 37 32 32 34 37 37 36 35 31 27 27 24 25 24
74 68 62 61 60 62 63 71 63 60 57 60 63 61 56 50 49 46 43 43 47 44 43 39 36 38 38 41 43 45 38 36 32 33 39 39 38 34 36 32 25 27 25 24 25
75 77 70 64 63 59 57 58 62 67 66 62 57 60 59 59 56 55 50 49 48 43 43 39 38 41 41 40 36 38 39 37 34 38 41 42 37 35 35 32 29 26 28 28 25
77 79 75 68 62 64 59 60 55 55 57 61 62 65 57 54 53 56 53 50 47 43 45 40 45 46 43 39 38 41 40 35 41 39 42 39 37 35 34 35 33 32 28 25 27
82 76 78 77 67 69 61 61 60 56 56 57 54 57 58 57 54 59 53 55 53 56 49 51 50 51 44 39 42 43 41 36 37 37 40 41 38 35 33 33 34 33 32 28 29
84 77 78 78 75 69 70 65 62 61 59 58 54 55 56 55 52 55 49 52 50 49 49 48 50 42 42 45 43 40 40 36 38 40 42 43 40 36 35 33 33 34 33 31 31
83 78 79 78 76 78 74 66 64 65 67 62 58 56 52 58 51 57 56 52 49 52 50 51 51 46 50 50 50 47 39 39 39 41 46 47 45 40 34 34 34 32 32 32 34
84 78 76 80 79 81 80 75 68 63 65 63 59 52 50 56 52 54 51 49 46 47 48 51 49 48 56 53 51 45 41 41 41 41 46 50 54 48 37 36 38 36 35 32 39
92 87 84 83 86 84 81 76 67 65 66 65 61 48 54 52 54 54 54 51 55 55 55 52 57 55 53 57 45 43 44 43 47 45 48 52 55 50 38 44 38 36 37 40 42
86 90 90 87 87 84 82 76 69 71 70 69 60 56 58 57 57 55 55 54 55 48 49 52 50 54 53 53 47 44 45 45 47 45 50 50 58 52 46 48 47 38 37 42 44
89 89 91 93 89 85 80 76 69 73 75 74 67 58 60 62 61 63 55 51 53 51 53 53 56 57 58 49 44 44 41 47 51 49 43 52 52 55 49 47 47 46 37 42 40
87 85 94 90 92 91 88 82 73 70 69 72 67 60 61 62 68 67 65 63 57 55 58 57 55 52 44 41 47 53 47 50 52 51 44 42 50 54 53 51 46 40 32 42 46
76 73 92 95 89 85 80 76 75 69 71 71 64 59 64 64 67 69 63 62 58 55 54 51 49 48 47 52 48 46 49 50 48 48 43 41 47 56 54 52 48 43 48 49 47
87 76 75 93 87 78 73 76 68 71 74 68 64 58 69 69 64 61 52 51 47 48 51 44 44 48 50 50 48 45 51 50 45 44 40 40 43 54 49 50 52 54 56 46 45
99 95 92 87 84 77 75 74 69 75 73 67 63 61 66 64 60 58 62 59 56 54 50 43 50 45 46 44 48 50 47 43 44 41 41 51 47 54 52 51 55 57 52 51 51
106 93 90 81 81 75 75 72 68 74 66 63 57 59 65 65 63 62 52 46 49 44 47 49 51 52 49 53 51 47 46 45 44 45 43 52 51 49 54 52 54 50 53 55 53
105 95 95 95 78 78 80 72 76 66 62 59 53 62 66 63 57 52 46 51 47 49 49 54 49 47 48 45 46 46 49 48 47 47 44 49 49 57 57 59 54 54 53 56 63
103 100 100 97 88 86 84 80 80 59 61 64 65 63 63 63 63 66 63 61 58 62 64 60 51 45 48 45 49 50 50 50 49 48 48 53 53 52 53 57 60 60 64 67 69
104 101 101 98 91 88 89 88 76 65 66 72 66 60 63 65 63 64 67 66 65 62 62 56 52 52 46 50 49 51 50 50 48 53 53 57 58 59 60 61 66 69 71 72 74
106 102 102 100 96 93 96 91 79 77 69 72 72 61 63 65 66 65 63 59 58 56 58 55 52 55 55 55 51 48 49 50 52 54 57 59 62 64 65 67 69 71 71 73 75
112 113 109 105 102 102 98 87 89 86 85 78 69 68 68 66 64 65 65 62 59 61 60 58 59 57 55 54 52 52 49 51 55 54 59 66 72 68 66 65 68 72 74 75 76
118 115 110 107 112 106 96 89 87 86 88 81 77 75 74 74 69 68 67 67 62 60 57 58 58 59 58 58 62 58 59 63 66 64 63 66 72 74 74 76 77 79 77 79 81
124 116 114 113 118 99 96 96 92 94 87 83 80 71 74 75 69 68 69 67 70 66 60 61 62 62 58 63 62 65 63 62 63 61 63 70 74 76 78 82 84 84 84 86 86
129 121 122 119 115 102 98 100 94 95 91 88 84 72 71 71 69 64 63 58 60 59 64 67 68 70 64 64 64 65 64 65 65 66 67 72 79 79 83 88 88 88 90 91 92
135 128 125 124 117 103 101 97 97 97 91 88 87 82 76 73 69 70 67 66 68 66 68 64 62 63 68 72 71 67 69 72 77 75 74 76 83 92 91 95 94 92 91 93 96
138 133 126 127 116 107 105 98 98 93 90 85 86 84 86 80 80 76 78 70 73 73 76 76 73 76 77 76 81 72 70 77 77 80 82 83 84 91 96 99 98 99 101 102 105
147 138 134 129 118 111 107 94 93 96 94 86 89 91 91 88 85 82 86 84 73 75 82 85 84 81 83 81 84 74 72 76 81 91 90 90 92 92 97 101 103 103 106 108 110
Wind_Direction
257 257 257 256 257 253 252 253 256 255 253 260 264 267 268 269 271 269 269 276 279 283 287 283 277 287 298 293 288 291 294 291 289 298 305 304 310 307 310 306 308 287 285 287 290
254 256 258 261 258 256 256 251 251 257 257 261 263 265 269 269 265 273 275 271 278 279 288 280 277 294 294 286 283 290 287 289 292 299 306 308 308 309 307 306 309 288 285 295 292
254 256 258 259 261 258 257 256 255 258 257 258 260 265 265 266 267 264 265 273 277 279 281 274 275 292 294 290 289 290 286 287 294 300 302 306 306 307 304 303 309 285 285 290 294
248 255 256 256 256 259 261 259 258 262 259 260 263 261 263 259 262 269 265 264 264 270 277 278 278 288 292 288 288 285 285 290 294 291 296 301 304 303 303 302 302 300 304 298 300
243 247 254 257 255 258 259 259 264 263 261 261 264 267 265 266 265 267 267 265 265 269 275 277 281 284 282 290 285 287 283 282 288 295 298 300 302 301 303 301 297 302 305 308 310
238 241 246 252 257 256 256 255 261 263 266 265 264 267 268 266 259 261 264 266 264 274 266 272 278 277 282 288 290 282 284 288 290 293 298 296 297 298 299 296 297 294 299 301 303
239 241 242 246 249 254 253 254 255 256 265 264 265 272 272 264 263 256 259 264 269 266 270 268 274 281 282 286 286 278 285 287 287 293 296 294 291 295 294 295 296 294 291 292 293
241 240 242 248 252 251 248 252 256 256 263 264 263 264 265 273 262 253 259 261 254 258 263 270 272 273 282 287 282 273 278 283 287 294 295 294 286 289 284 297 296 291 289 293 291
247 245 242 246 247 248 249 250 252 259 262 261 259 259 257 269 265 260 258 259 259 264 270 268 273 272 278 285 274 269 276 283 290 291 294 288 286 290 287 293 293 290 292 291 291
242 247 243 244 245 248 247 248 251 256 258 257 255 255 250 256 267 264 257 259 256 263 265 268 272 275 279 277 266 268 276 287 290 291 291 289 284 287 288 285 287 284 288 284 290
235 244 247 246 245 245 244 246 247 252 253 257 256 255 252 252 257 255 258 258 253 256 261 264 269 275 273 266 268 286 279 290 289 290 289 286 285 287 287 292 287 285 292 292 294
241 242 243 241 244 246 246 248 247 253 254 257 250 252 253 252 252 254 253 256 256 261 265 267 272 267 263 260 272 281 278 287 291 287 287 278 282 282 286 290 291 283 290 290 288
233 238 241 238 242 245 247 249 250 255 253 249 252 255 254 251 254 253 258 262 263 263 263 262 262 261 266 272 276 275 285 286 285 285 285 277 277 279 284 287 282 280 294 291 282
227 231 241 237 241 243 245 249 250 250 247 244 250 250 254 253 255 259 261 260 253 253 265 263 262 266 269 272 272 281 284 288 285 283 283 284 283 281 278 281 286 288 287 282 277
227 229 233 243 240 240 241 244 248 243 242 243 246 249 253 251 245 256 252 252 258 259 265 260 262 266 280 274 280 285 284 284 282 283 284 284 281 278 280 285 283 280 278 277 275
228 228 233 230 238 237 238 242 245 244 246 245 244 248 248 249 252 256 262 256 262 262 264 257 258 270 272 277 280 281 282 282 282 280 283 277 279 284 284 286 282 274 275 281 287
225 223 229 231 226 233 236 232 242 242 243 244 244 243 244 248 248 250 252 257 257 255 254 260 266 270 276 278 278 279 282 282 282 284 277 279 286 282 284 282 278 276 278 279 287
221 224 230 231 226 232 230 230 232 228 238 247 247 240 242 246 248 242 246 253 250 259 265 269 273 272 273 277 278 282 281 281 277 277 280 279 279 281 283 283 286 287 289 291 292
220 223 227 228 227 229 229 227 226 228 239 245 248 247 244 245 247 245 248 252 256 257 262 263 266 267 272 277 280 279 281 275 279 274 272 275 279 281 284 285 284 287 290 289 289
220 221 223 227 231 230 230 226 222 229 233 243 246 244 245 244 244 245 251 254 256 258 257 262 267 269 269 276 285 279 272 273 271 270 273 276 278 280 281 285 288 287 287 286 290
220 222 223 229 230 230 228 227 226 231 234 239 238 239 243 243 244 246 249 252 259 264 268 270 272 269 267 278 267 266 268 267 266 268 271 278 281 285 285 283 285 286 285 286 289
219 223 222 227 230 230 225 228 228 231 234 233 241 247 243 243 248 251 252 252 261 268 269 266 267 271 272 270 271 271 274 272 271 272 275 282 284 285 283 288 289 288 290 296 296
219 221 223 225 230 227 222 228 227 227 232 233 239 241 245 248 250 254 261 264 262 270 260 260 273 271 271 271 266 274 276 280 283 279 285 288 288 285 288 291 291 292 295 296 298
219 218 221 223 226 223 220 225 225 229 230 231 232 236 243 249 253 251 256 257 262 262 262 267 268 274 277 273 268 271 278 279 280 286 291 296 290 289 291 291 294 297 299 298 298
217 217 219 223 225 225 222 222 226 228 229 230 233 238 241 245 245 249 248 260 265 263 268 272 271 272 278 276 274 270 275 280 286 289 291 290 291 294 295 295 298 297 298 297 296
216 217 220 220 222 223 224 221 227 230 231 232 235 239 239 242 242 245 249 255 258 260 260 264 269 272 275 276 277 275 273 278 283 286 288 290 292 292 294 295 297 300 301 300 301
214 214 219 219 223 220 223 223 225 228 233 232 237 240 242 245 246 244 248 249 251 259 258 261 263 271 272 276 275 276 280 280 277 284 285 288 289 292 294 295 297 299 299 301 304
Height
10772 10777 10780 10784 10788 10792 10797 10801 10805 10808 10810 10812 10813 10817 10820 10821 10824 10826 10828 10829 10829 10828 10829 10828 10827 10827 10825 10824 10823 10822 10821 10819 10818 10816 10813 10811 10809 10805 10803 10801 10800 10795 10795 10794 10796
10760 10765 10769 10773 10777 10781 10785 10790 10795 10798 10800 10802 10804 10807 10812 10814 10818 10818 10821 10822 10823 10821 10822 10821 10821 10821 10820 10817 10815 10814 10814 10812 10813 10810 10807 10806 10802 10801 10798 10796 10795 10793 10792 10790 10790
10747 10752 10757 10761 10765 10769 10775 10779 10783 10786 10789 10792 10794 10798 10802 10805 10810 10807 10812 10814 10816 10815 10814 10813 10814 10814 10813 10810 10808 10807 10806 10806 10805 10804 10802 10800 10798 10796 10793 10791 10790 10787 10787 10786 10786
10734 10738 10744 10749 10753 10757 10763 10767 10771 10775 10777 10779 10782 10788 10791 10795 10801 10798 10802 10805 10806 10807 10807 10806 10807 10807 10806 10804 10802 10800 10800 10799 10797 10798 10796 10795 10793 10791 10788 10787 10785 10782 10781 10781 10781
10719 10725 10729 10734 10741 10746 10751 10755 10759 10762 10766 10769 10772 10776 10781 10786 10790 10785 10792 10794 10798 10799 10799 10799 10799 10799 10797 10797 10795 10793 10792 10792 10791 10790 10789 10788 10787 10786 10784 10781 10779 10777 10775 10775 10775
10701 10709 10715 10720 10726 10732 10738 10743 10748 10750 10752 10757 10761 10766 10770 10773 10780 10777 10781 10784 10787 10790 10790 10790 10791 10790 10788 10789 10788 10786 10783 10784 10783 10782 10781 10780 10780 10779 10779 10776 10774 10772 10771 10770 10770
10683 10692 10700 10707 10713 10719 10723 10730 10736 10739 10740 10745 10750 10754 10761 10757 10766 10767 10771 10775 10778 10778 10779 10780 10782 10782 10781 10780 10779 10778 10778 10776 10774 10774 10772 10770 10770 10772 10771 10769 10768 10766 10765 10765 10763
10666 10676 10684 10692 10698 10703 10709 10718 10723 10726 10728 10733 10738 10745 10751 10748 10755 10755 10761 10764 10767 10769 10770 10771 10771 10772 10773 10772 10769 10770 10769 10767 10765 10766 10763 10761 10758 10763 10762 10762 10760 10760 10757 10758 10754
10647 10659 10668 10676 10683 10687 10695 10703 10708 10712 10716 10721 10727 10735 10738 10739 10740 10748 10751 10754 10757 10759 10760 10761 10761 10764 10763 10762 10760 10760 10760 10759 10756 10759 10754 10752 10749 10753 10754 10752 10752 10751 10751 10747 10746
10633 10640 10649 10658 10666 10673 10681 10688 10693 10697 10703 10709 10716 10721 10725 10727 10731 10735 10737 10743 10746 10748 10749 10749 10751 10755 10753 10752 10750 10752 10753 10749 10747 10751 10745 10745 10738 10744 10746 10741 10740 10742 10742 10740 10740
10618 10624 10631 10639 10648 10660 10667 10672 10679 10685 10689 10696 10702 10711 10713 10716 10720 10722 10726 10730 10735 10736 10738 10738 10744 10743 10739 10744 10744 10743 10743 10741 10736 10736 10742 10735 10735 10728 10734 10736 10733 10731 10735 10732 10732
10599 10608 10614 10622 10633 10643 10651 10660 10660 10670 10678 10681 10686 10696 10698 10706 10708 10708 10715 10717 10722 10724 10726 10729 10733 10727 10732 10735 10734 10733 10732 10731 10728 10727 10728 10729 10727 10722 10723 10725 10724 10723 10728 10725 10721
10585 10591 10594 10606 10615 10629 10642 10643 10643 10656 10662 10666 10675 10686 10684 10692 10695 10699 10706 10703 10711 10712 10715 10717 10718 10720 10722 10723 10724 10722 10722 10721 10720 10717 10717 10718 10719 10715 10715 10715 10714 10714 10717 10716 10713
10573 10576 10576 10587 10601 10618 10627 10618 10633 10640 10643 10659 10663 10674 10672 10677 10687 10686 10692 10692 10697 10700 10700 10708 10706 10708 10710 10712 10711 10713 10710 10711 10710 10707 10708 10706 10710 10706 10708 10708 10706 10704 10703 10702 10701
10555 10560 10562 10576 10588 10603 10602 10598 10617 10618 10628 10646 10652 10657 10660 10670 10670 10673 10676 10682 10685 10687 10689 10697 10696 10696 10697 10698 10700 10702 10699 10700 10698 10698 10699 10695 10699 10695 10699 10703 10697 10693 10688 10686 10687
10535 10546 10548 10557 10572 10584 10583 10590 10597 10600 10625 10630 10638 10644 10646 10651 10659 10661 10663 10670 10669 10676 10680 10683 10684 10684 10686 10686 10690 10690 10689 10688 10688 10688 10692 10683 10683 10688 10685 10691 10691 10687 10680 10674 10674
10514 10525 10532 10541 10561 10559 10568 10576 10580 10592 10609 10617 10627 10630 10630 10637 10642 10649 10653 10654 10662 10663 10668 10667 10671 10676 10675 10675 10677 10678 10678 10678 10679 10678 10679 10673 10674 10675 10675 10674 10680 10678 10674 10670 10667
10494 10505 10514 10524 10532 10539 10549 10557 10561 10595 10597 10599 10608 10615 10620 10621 10629 10636 10639 10643 10649 10650 10651 10657 10662 10664 10660 10664 10664 10667 10666 10667 10665 10665 10666 10665 10664 10664 10666 10663 10661 10664 10660 10658 10656
10470 10482 10489 10500 10507 10518 10528 10530 10566 10583 10588 10582 10592 10600 10607 10611 10615 10620 10627 10632 10636 10641 10640 10644 10651 10651 10654 10648 10653 10656 10654 10651 10654 10654 10655 10652 10653 10653 10655 10651 10648 10648 10646 10643 10639
10448 10457 10466 10478 10488 10497 10503 10524 10553 10562 10568 10565 10577 10588 10591 10598 10601 10608 10613 10621 10622 10625 10624 10634 10636 10640 10641 10639 10641 10642 10641 10641 10644 10644 10641 10640 10635 10636 10642 10640 10634 10631 10631 10628 10626
10416 10423 10443 10456 10462 10464 10485 10524 10536 10544 10546 10557 10568 10574 10581 10584 10590 10597 10602 10605 10608 10610 10612 10617 10621 10627 10631 10629 10628 10629 10632 10634 10629 10632 10630 10626 10617 10622 10625 10625 10622 10616 10613 10615 10616
10387 10394 10425 10432 10421 10444 10482 10512 10521 10526 10531 10545 10551 10559 10569 10571 10579 10582 10586 10592 10593 10597 10602 10602 10606 10613 10616 10616 10614 10618 10618 10618 10620 10622 10621 10614 10605 10605 10602 10601 10600 10597 10598 10598 10592
10361 10382 10398 10404 10396 10447 10473 10487 10497 10506 10519 10533 10544 10545 10553 10558 10566 10569 10572 10580 10582 10584 10585 10587 10594 10593 10603 10602 10604 10600 10603 10604 10603 10606 10608 10600 10592 10589 10586 10580 10576 10578 10579 10576 10571
10334 10359 10370 10375 10394 10425 10445 10467 10481 10494 10505 10519 10530 10531 10540 10549 10553 10558 10557 10565 10567 10568 10567 10569 10575 10580 10581 10585 10588 10590 10589 10589 10589 10592 10591 10588 10569 10569 10568 10559 10561 10562 10558 10554 10546
10309 10332 10351 10357 10384 10418 10432 10453 10462 10476 10492 10503 10515 10523 10532 10535 10538 10542 10542 10551 10553 10556 10551 10554 10557 10558 10561 10561 10565 10575 10579 10575 10571 10575 10577 10573 10561 10543 10540 10534 10541 10541 10540 10532 10524
10293 10316 10337 10353 10379 10397 10414 10434 10453 10470 10479 10496 10505 10509 10514 10519 10524 10530 10527 10537 10538 10540 10537 10540 10545 10543 10547 10547 10545 10555 10559 10561 10562 10554 10556 10555 10551 10533 10525 10519 10515 10512 10508 10502 10496
10260 10298 10319 10338 10363 10377 10402 10432 10452 10449 10464 10479 10485 10487 10496 10505 10509 10515 10514 10520 10523 10524 10522 10522 10525 10526 10529 10530 10526 10541 10544 10539 10537 10539 10539 10539 10532 10523 10513 10503 10499 10496 10489 10482 10475